Tracking 32938 objects as of 13-Jan-2026
HD Live streaming from Space Station
objects crossing your sky now

STARLINK-32475

Track STARLINK-32475 now!
10-day predictions
STARLINK-32475 is classified as:


NORAD ID: 61728
Int'l Code: 2024-196X
Perigee: 481.3 km
Apogee: 483.6 km
Inclination: 53.2 °
Period: 94.1 minutes
Semi major axis: 6853 km
RCS: Unknown
Launch date: October 30, 2024
Source: United States (US)
Launch site: AIR FORCE EASTERN TEST RANGE (AFETR)
Your satellite tracking list
Your tracking list is empty




NASA's NSSDC Master Catalog

Two Line Element Set (TLE):
1 61728U 24196X   26012.94988644  .00004760  00000-0  17294-3 0  9992
2 61728  53.1620   0.1664 0001733 102.8587 257.2608 15.30163876 68627
Source of the keplerian elements: AFSPC